• In Österreich
  • Länderverzeichnis
  • Für 7 Tage
  • Wassertemperatur
  • Satellitenkarten
  • Wetterkarte
  • News
  • Widgets
  • user-avatar
    Anmelden

    Stündliche Wetter Canberra

    Heute, 20 Mai, Sonntag

    Zeit Temperatur Niederschläge Wind Luftdruck Luftfeuchtigkeit
    00:00 +4°C° 0 mm 2 m/S 712 mmHg 90%
    01:00 +4°C° 0 mm 2 m/S 711 mmHg 90%
    02:00 +3°C° 0 mm 2 m/S 711 mmHg 90%
    03:00 +3°C° 0 mm 2 m/S 711 mmHg 90%
    04:00 +3°C° 0 mm 2 m/S 711 mmHg 89%
    05:00 +3°C° 0 mm 2 m/S 711 mmHg 89%
    06:00 +3°C° 0 mm 2 m/S 711 mmHg 89%
    07:00 +3°C° 0 mm 2 m/S 711 mmHg 89%
    08:00 +6°C° 0 mm 2 m/S 712 mmHg 78%
    09:00 +9°C° 0 mm 3 m/S 712 mmHg 67%
    10:00 +12°C° 0 mm 2 m/S 712 mmHg 54%
    11:00 +12°C° 0 mm 3 m/S 712 mmHg 51%
    12:00 +14°C° 0 mm 4 m/S 712 mmHg 48%
    13:00 +15°C° 0 mm 4 m/S 712 mmHg 44%
    14:00 +15°C° 0 mm 4 m/S 711 mmHg 47%
    15:00 +14°C° 0 mm 4 m/S 711 mmHg 49%
    16:00 +13°C° 0 mm 3 m/S 711 mmHg 54%
    17:00 +11°C° 0 mm 3 m/S 711 mmHg 61%
    18:00 +9°C° 0 mm 3 m/S 712 mmHg 69%
    19:00 +8°C° 0 mm 3 m/S 712 mmHg 77%
    20:00 +8°C° 0 mm 3 m/S 712 mmHg 81%
    21:00 +7°C° 0 mm 2 m/S 712 mmHg 84%
    22:00 +7°C° 0 mm 2 m/S 712 mmHg 87%
    23:00 +7°C° 0 mm 2 m/S 712 mmHg 88%

    Morgen, 21 Mai, Montag

    Zeit Temperatur Niederschläge Wind Luftdruck Luftfeuchtigkeit
    00:00 +8°C° 0 mm 3 m/S 712 mmHg 88%
    01:00 +8°C° 0 mm 3 m/S 712 mmHg 89%
    02:00 +8°C° 0 mm 3 m/S 712 mmHg 88%
    03:00 +8°C° 0 mm 4 m/S 712 mmHg 86%
    04:00 +8°C° 0 mm 4 m/S 712 mmHg 85%
    05:00 +8°C° 0 mm 4 m/S 712 mmHg 85%
    06:00 +8°C° 0 mm 4 m/S 712 mmHg 85%
    07:00 +8°C° 0 mm 4 m/S 712 mmHg 86%
    08:00 +9°C° 0 mm 5 m/S 712 mmHg 79%
    09:00 +10°C° 0 mm 5 m/S 712 mmHg 73%
    10:00 +11°C° 0 mm 6 m/S 712 mmHg 66%
    11:00 +13°C° 0 mm 6 m/S 712 mmHg 64%
    12:00 +13°C° 0 mm 6 m/S 712 mmHg 61%
    13:00 +14°C° 0 mm 6 m/S 711 mmHg 59%
    14:00 +13°C° 0 mm 5 m/S 711 mmHg 60%
    15:00 +13°C° 0 mm 5 m/S 711 mmHg 61%
    16:00 +13°C° 0 mm 5 m/S 711 mmHg 62%
    17:00 +12°C° 0 mm 5 m/S 711 mmHg 68%
    18:00 +10°C° 0 mm 4 m/S 711 mmHg 74%
    19:00 +8°C° 0 mm 4 m/S 712 mmHg 80%
    20:00 +8°C° 0 mm 4 m/S 712 mmHg 82%
    21:00 +7°C° 0 mm 4 m/S 712 mmHg 83%
    22:00 +8°C° 0 mm 3 m/S 712 mmHg 85%
    23:00 +7°C° 0 mm 3 m/S 712 mmHg 86%

    übermorgen, 22 Mai, Dienstag

    Zeit Temperatur Niederschläge Wind Luftdruck Luftfeuchtigkeit
    00:00 +7°C° 0 mm 3 m/S 712 mmHg 86%
    01:00 +7°C° 0 mm 3 m/S 712 mmHg 86%
    02:00 +7°C° 0 mm 3 m/S 711 mmHg 87%
    03:00 +5°C° 0 mm 3 m/S 711 mmHg 88%
    04:00 +5°C° 0 mm 3 m/S 711 mmHg 89%
    05:00 +5°C° 0 mm 3 m/S 712 mmHg 90%
    06:00 +7°C° 0 mm 3 m/S 712 mmHg 90%
    07:00 +7°C° 0 mm 3 m/S 712 mmHg 91%
    08:00 +9°C° 0 mm 3 m/S 712 mmHg 81%
    09:00 +11°C° 0 mm 4 m/S 713 mmHg 71%
    10:00 +14°C° 0 mm 4 m/S 713 mmHg 62%
    11:00 +15°C° 0 mm 5 m/S 713 mmHg 58%
    12:00 +16°C° 0 mm 5 m/S 713 mmHg 55%
    13:00 +17°C° 0 mm 5 m/S 713 mmHg 52%
    14:00 +16°C° 0 mm 5 m/S 713 mmHg 53%
    15:00 +17°C° 0 mm 4 m/S 713 mmHg 55%
    16:00 +15°C° 0 mm 4 m/S 713 mmHg 56%
    17:00 +13°C° 0 mm 3 m/S 713 mmHg 66%
    18:00 +11°C° 0 mm 3 m/S 713 mmHg 75%
    19:00 +9°C° 0 mm 2 m/S 713 mmHg 84%
    20:00 +9°C° 0 mm 2 m/S 713 mmHg 88%
    21:00 +8°C° 0 mm 2 m/S 714 mmHg 91%
    22:00 +9°C° 0 mm 1 m/S 714 mmHg 94%
    23:00 +9°C° 0 mm 1 m/S 714 mmHg 95%

    23 Mai, Mittwoch

    Zeit Temperatur Niederschläge Wind Luftdruck Luftfeuchtigkeit
    00:00 +9°C° 0 mm 1 m/S 714 mmHg 95%
    01:00 +9°C° 0 mm 1 m/S 714 mmHg 96%
    02:00 +8°C° 0 mm 1 m/S 714 mmHg 96%
    03:00 +8°C° 0 mm 1 m/S 714 mmHg 96%
    04:00 +8°C° 0 mm 1 m/S 714 mmHg 97%
    05:00 +8°C° 0 mm 1 m/S 714 mmHg 97%
    06:00 +8°C° 0 mm 1 m/S 715 mmHg 97%
    07:00 +8°C° 0 mm 1 m/S 715 mmHg 97%
    08:00 +10°C° 0 mm 1 m/S 716 mmHg 88%
    09:00 +12°C° 0 mm 1 m/S 716 mmHg 79%
    10:00 +14°C° 0 mm 1 m/S 716 mmHg 70%
    11:00 +16°C° 0 mm 2 m/S 716 mmHg 63%
    12:00 +17°C° 0 mm 2 m/S 715 mmHg 56%
    13:00 +18°C° 0 mm 2 m/S 715 mmHg 49%
    14:00 +18°C° 0 mm 3 m/S 715 mmHg 52%
    15:00 +17°C° 0 mm 3 m/S 714 mmHg 55%
    16:00 +17°C° 0 mm 3 m/S 714 mmHg 57%
    17:00 +15°C° 0 mm 2 m/S 714 mmHg 68%
    18:00 +12°C° 0 mm 2 m/S 714 mmHg 78%
    19:00 +9°C° 0 mm 2 m/S 714 mmHg 89%
    20:00 +9°C° 0 mm 1 m/S 714 mmHg 88%
    21:00 +9°C° 0 mm 1 m/S 715 mmHg 88%
    22:00 +9°C° 0 mm 1 m/S 715 mmHg 88%
    23:00 +8°C° 0 mm 1 m/S 715 mmHg 87%

    24 Mai, Donnerstag

    Zeit Temperatur Niederschläge Wind Luftdruck Luftfeuchtigkeit
    00:00 +8°C° 0 mm 1 m/S 714 mmHg 86%
    01:00 +8°C° 0 mm 1 m/S 714 mmHg 86%
    02:00 +8°C° 0 mm 1 m/S 714 mmHg 86%
    03:00 +7°C° 0 mm 1 m/S 714 mmHg 87%
    04:00 +6°C° 0 mm 0 m/S 714 mmHg 87%
    05:00 +6°C° 0 mm 0 m/S 714 mmHg 88%
    06:00 +6°C° 0 mm 0 m/S 715 mmHg 88%
    07:00 +6°C° 0 mm 0 m/S 715 mmHg 89%
    08:00 +9°C° 0 mm 1 m/S 715 mmHg 81%
    09:00 +12°C° 0 mm 1 m/S 716 mmHg 72%
    10:00 +15°C° 0 mm 1 m/S 716 mmHg 63%
    11:00 +16°C° 0 mm 1 m/S 716 mmHg 59%
    12:00 +18°C° 0 mm 1 m/S 715 mmHg 56%
    13:00 +19°C° 0 mm 1 m/S 715 mmHg 52%
    14:00 +18°C° 0 mm 1 m/S 715 mmHg 54%
    15:00 +18°C° 0 mm 1 m/S 714 mmHg 57%
    16:00 +16°C° 0 mm 1 m/S 714 mmHg 59%
    17:00 +14°C° 0 mm 1 m/S 714 mmHg 70%
    18:00 +12°C° 0 mm 1 m/S 714 mmHg 81%
    19:00 +8°C° 0 mm 0 m/S 714 mmHg 91%
    20:00 +8°C° 0 mm 0 m/S 714 mmHg 92%
    21:00 +7°C° 0 mm 0 m/S 715 mmHg 93%
    22:00 +7°C° 0 mm 0 m/S 715 mmHg 94%
    23:00 +8°C° 0 mm 1 m/S 715 mmHg 94%

    25 Mai, Freitag

    Zeit Temperatur Niederschläge Wind Luftdruck Luftfeuchtigkeit
    00:00 +8°C° 0 mm 1 m/S 714 mmHg 95%
    01:00 +7°C° 0 mm 1 m/S 714 mmHg 95%
    02:00 +7°C° 0 mm 1 m/S 714 mmHg 96%
    03:00 +7°C° 0 mm 1 m/S 714 mmHg 96%
    04:00 +6°C° 0 mm 0 m/S 713 mmHg 96%
    05:00 +7°C° 0 mm 1 m/S 714 mmHg 96%
    06:00 +7°C° 0 mm 1 m/S 714 mmHg 95%
    07:00 +7°C° 0 mm 1 m/S 714 mmHg 95%
    08:00 +9°C° 0 mm 1 m/S 714 mmHg 85%
    09:00 +11°C° 0 mm 1 m/S 714 mmHg 75%
    10:00 +13°C° 0 mm 1 m/S 714 mmHg 65%
    11:00 +15°C° 0 mm 2 m/S 713 mmHg 56%
    12:00 +16°C° 0 mm 2 m/S 713 mmHg 47%
    13:00 +18°C° 0 mm 3 m/S 712 mmHg 38%
    14:00 +17°C° 0 mm 3 m/S 712 mmHg 40%
    15:00 +17°C° 0 mm 3 m/S 712 mmHg 42%
    16:00 +16°C° 0 mm 3 m/S 711 mmHg 44%
    17:00 +14°C° 0 mm 2 m/S 711 mmHg 55%
    18:00 +10°C° 0 mm 2 m/S 711 mmHg 66%
    19:00 +8°C° 0 mm 2 m/S 711 mmHg 76%
    20:00 +7°C° 0 mm 2 m/S 712 mmHg 79%
    21:00 +6°C° 0 mm 2 m/S 712 mmHg 82%
    22:00 +6°C° 0 mm 2 m/S 712 mmHg 85%
    23:00 +5°C° 0 mm 2 m/S 712 mmHg 85%
    Mehr zeigen